Location: Bush Observatory
(40.2653°N, 94.3194°W)
Time: 19:16:58
(UTC-05:00)

FO-29 - Visible Passes

Search period start: 22 March 2017 00:00
Search period end: 01 April 2017 00:00
Orbit: 800 x 1321 km, 98.6° (Epoch: 21 March)

Date Brightness Start Highest point End Pass type
(mag) Time Alt. Az. Time Alt. Az. Time Alt. Az.
22 Mar 11.9 00:30:29 10° N 00:31:41 16° N 00:31:41 16° N visible
22 Mar 12.0 23:35:33 10° NNE 23:35:59 12° NNE 23:35:59 12° NNE visible
23 Mar 12.1 01:21:26 10° NNW 01:22:29 14° NNW 01:22:29 14° NNW visible
24 Mar 11.9 00:25:34 10° N 00:26:48 16° N 00:26:48 16° N visible
24 Mar 11.9 23:30:42 10° NNE 23:31:06 12° NNE 23:31:06 12° NNE visible
25 Mar 12.0 01:16:27 10° N 01:17:35 14° NNW 01:17:35 14° NNW visible
26 Mar 11.8 00:20:39 10° N 00:21:54 16° N 00:21:54 16° N visible
26 Mar 11.9 23:25:51 10° NNE 23:26:12 12° NNE 23:26:12 12° NNE visible
27 Mar 11.9 01:11:27 10° N 01:12:41 15° NNW 01:12:41 15° NNW visible
28 Mar 11.7 00:15:43 10° N 00:17:00 17° N 00:17:00 17° N visible
28 Mar 11.8 23:20:59 10° NNE 23:21:18 11° NNE 23:21:18 11° NNE visible
29 Mar 11.9 01:06:28 10° N 01:07:47 15° NNW 01:07:47 15° NNW visible
30 Mar 11.7 00:10:46 10° N 00:12:05 17° N 00:12:05 17° N visible
30 Mar 11.8 23:16:08 10° NNE 23:16:23 11° NNE 23:16:23 11° NNE visible
31 Mar 11.8 01:01:27 10° N 01:02:52 16° NNW 01:02:52 16° NNW visible
